SCP
0 0 0 0 0 0 0 0 0 0 0 0 0 0 0 0 0 0 0 0 0 0 1 1 0 0 0 1 2 2 2 2 3 3 2 2 2 1 1 1 1 0 0 0
0 0 0 0 0 0 0 0 0 0 0 0 0 0 0 0 0 0 0 0 0 0 0 0 0 0 0 1 1 1 2 2 2 3 3 2 2 2 2 1 1 1 0 0
0 0 0 0 0 0 0 0 0 0 0 0 0 0 0 0 0 0 0 0 0 0 0 0 0 0 0 0 0 1 1 1 2 2 2 3 3 3 2 2 1 1 1 1
0 0 0 0 0 0 0 0 0 0 0 0 0 0 0 0 0 0 0 0 0 0 0 0 0 0 0 0 0 0 1 1 1 1 2 3 3 3 2 1 1 1 1 1
0 0 0 0 0 0 0 0 0 0 0 0 0 0 0 0 0 0 0 0 0 0 0 0 0 0 0 0 0 0 1 1 1 1 2 2 2 2 2 1 1 1 1 1
0 0 0 0 0 0 0 0 0 0 0 0 0 0 0 0 0 0 0 0 0 0 0 0 0 0 0 0 0 0 1 1 1 2 2 2 2 2 1 1 1 1 1 1
0 0 0 0 0 0 0 0 0 0 0 0 0 0 0 0 0 0 0 0 0 0 1 1 0 0 0 0 0 1 1 1 1 2 2 2 2 1 1 1 1 1 1 1
0 0 0 0 0 0 0 0 0 0 0 0 0 0 0 0 0 0 0 0 0 0 1 1 1 0 0 0 0 0 1 1 1 2 1 1 1 1 1 1 1 1 1 1
0 0 0 0 0 0 0 0 0 0 0 0 0 0 0 0 0 0 0 0 0 0 0 1 0 0 0 0 0 0 1 1 1 2 2 1 1 1 1 1 1 1 1 1
0 0 0 0 0 0 0 0 0 0 0 0 0 0 0 0 0 0 0 0 0 0 0 0 0 0 0 1 1 1 1 1 1 1 2 2 1 1 1 1 1 1 1 1
0 0 0 0 0 0 0 0 0 0 0 0 0 0 0 0 0 0 0 0 0 0 0 0 0 1 1 1 1 1 1 1 1 1 1 1 1 1 1 1 1 1 1 1
0 0 0 0 0 0 0 0 0 0 0 0 0 0 0 0 0 0 0 0 0 0 0 0 1 1 1 1 1 1 1 1 1 1 1 1 1 1 1 1 1 1 1 1
0 0 0 0 0 0 0 0 0 0 0 0 0 0 0 0 0 0 0 0 0 0 0 1 1 1 1 2 2 2 1 1 1 1 1 1 1 1 1 1 1 1 1 1
0 0 0 0 0 0 0 0 0 0 0 0 0 0 0 0 0 0 0 0 0 0 0 1 1 1 1 2 2 2 2 1 1 1 1 1 1 1 1 1 1 1 1 1
0 0 0 0 0 0 0 0 0 0 0 0 0 0 0 0 0 0 0 0 0 0 0 1 1 1 1 2 2 2 2 2 2 2 1 1 1 1 1 1 1 1 1 1
0 0 0 0 0 0 0 0 0 0 0 0 0 0 0 0 0 0 0 0 0 0 0 0 1 1 1 2 2 2 2 2 2 2 1 1 1 1 1 1 1 1 1 1
0 0 0 0 0 0 0 0 0 0 0 0 0 0 0 0 0 0 0 0 0 0 0 0 1 1 1 2 2 2 2 2 2 1 1 1 1 1 1 1 1 1 1 1
0 0 0 0 0 0 0 0 0 0 0 0 0 0 0 0 0 0 0 0 0 0 0 0 1 1 1 1 1 1 1 1 1 1 1 1 1 1 1 1 1 1 1 1
0 0 0 0 0 0 0 0 0 0 0 0 0 0 0 0 0 0 0 0 0 0 0 1 1 1 1 1 1 1 1 1 1 0 0 0 0 0 0 1 1 1 1 1
0 0 0 0 0 0 0 0 0 0 0 0 0 0 0 0 0 0 0 0 0 1 1 1 1 1 1 1 1 1 0 0 0 0 0 0 0 0 0 0 1 0 0 0
0 0 0 0 0 0 0 0 0 0 0 0 0 0 0 0 0 0 0 0 1 1 1 1 0 0 0 0 1 0 0 0 0 0 0 0 0 0 0 0 0 0 0 0
0 0 0 0 0 0 0 0 0 0 0 0 0 0 0 0 0 0 0 0 1 1 1 0 0 0 0 0 0 0 0 0 0 0 0 0 0 0 0 0 0 0 0 0
0 0 0 0 0 0 0 0 0 0 0 0 0 0 0 0 0 0 0 0 1 1 0 0 0 0 0 0 0 0 0 0 0 0 0 0 0 0 0 0 0 0 0 0
0 0 0 0 0 0 0 0 0 0 0 0 0 0 0 0 0 0 0 0 0 0 0 0 0 0 0 0 0 0 0 0 0 0 0 0 0 0 0 0 0 0 0 0
0 0 0 0 0 0 0 0 0 0 0 0 0 0 0 0 0 0 0 0 0 0 0 0 0 0 0 0 0 0 0 0 0 0 0 0 0 0 0 1 0 0 0 0
0 0 0 0 0 0 0 0 0 0 0 0 0 0 0 0 0 0 0 0 0 0 0 0 0 0 0 0 0 0 0 0 0 0 0 0 0 0 0 1 1 0 0 0
Wind_Speed
2 4 3 2 2 1 1 2 2 0 1 1 2 1 1 2 2 2 3 3 3 2 2 2 2 2 2 2 2 2 2 3 2 2 2 2 2 2 2 1 1 1 1 1
5 4 1 1 2 3 4 4 2 1 2 2 1 1 1 2 3 3 3 3 3 2 2 3 2 2 2 3 2 2 1 2 2 1 1 1 2 2 2 1 1 1 1 2
4 1 2 4 4 5 5 5 3 2 2 4 3 3 3 3 3 2 2 3 2 3 2 3 2 2 2 2 2 2 2 2 2 2 1 2 2 2 3 3 2 2 2 2
3 2 3 4 4 5 5 3 4 4 5 3 4 3 2 3 4 3 3 3 3 3 3 3 2 2 2 1 1 2 2 2 2 2 2 3 2 2 2 2 2 3 3 3
3 3 4 4 3 4 2 0 3 4 5 5 5 5 2 4 4 3 3 3 3 3 3 3 3 2 1 1 1 1 2 2 2 2 2 2 2 2 2 2 2 2 3 2
2 2 3 2 1 2 4 4 4 4 5 6 4 5 2 2 2 1 2 3 3 3 3 2 2 2 1 1 1 1 2 2 2 2 3 3 3 3 3 3 3 3 2 2
4 4 3 3 4 5 6 6 4 5 5 2 2 4 1 1 0 1 1 2 3 3 3 3 2 2 1 1 1 1 2 2 3 3 3 3 3 4 4 4 3 3 2 2
4 4 4 3 4 4 5 7 5 4 3 1 3 4 1 2 1 1 1 2 3 3 3 3 3 2 2 2 2 2 2 2 2 2 3 2 3 2 2 3 3 3 2 2
3 2 3 2 2 4 5 5 4 6 5 5 3 2 2 2 1 1 2 3 3 3 3 3 3 3 2 2 2 2 2 2 2 2 3 3 3 3 3 3 3 2 2 2
4 4 3 3 5 2 3 2 4 5 4 5 3 3 1 2 1 2 3 3 3 3 3 4 4 3 3 2 2 2 2 2 2 2 2 2 3 3 3 3 4 3 3 3
5 5 4 5 5 4 5 5 4 4 4 5 3 1 3 1 1 1 2 2 3 3 3 3 4 3 3 2 2 2 2 1 1 1 1 2 2 2 3 3 3 3 4 4
4 5 4 4 2 2 4 5 6 5 4 4 5 0 4 1 1 1 1 1 2 3 3 3 3 3 3 2 2 2 2 2 2 1 1 1 1 2 2 2 2 2 3 3
4 6 6 6 6 5 4 4 6 6 5 6 6 1 4 1 1 1 1 1 1 2 2 3 3 3 3 3 3 2 2 2 2 2 1 2 2 2 2 2 2 2 2 2
4 5 6 5 2 2 5 5 7 8 7 7 7 5 2 2 1 1 0 1 1 1 2 2 2 3 3 3 3 3 2 2 2 2 2 2 2 2 2 2 2 2 2 2
5 6 6 6 3 4 6 7 7 9 9 9 7 6 5 3 2 2 1 0 1 1 1 2 2 2 2 2 3 3 3 3 3 3 2 2 2 2 3 3 2 2 2 2
3 5 5 6 4 5 7 7 8 9 9 10 9 8 3 2 1 1 1 1 1 1 1 1 2 2 2 2 2 2 3 3 3 3 3 2 2 2 2 2 2 1 1 2
3 5 6 5 4 5 8 6 7 8 7 8 9 5 1 2 1 2 2 1 2 2 1 1 1 1 1 1 2 2 2 2 3 2 2 2 2 2 2 2 2 2 2 2
5 6 4 5 5 8 1 2 3 5 5 6 6 3 2 2 2 2 2 2 2 1 1 1 1 1 1 1 1 1 1 2 2 2 2 2 2 2 2 2 2 2 2 2
6 6 5 5 7 7 3 3 3 4 5 3 4 2 1 1 2 2 1 1 2 2 1 1 1 1 0 0 0 1 1 1 1 1 1 1 2 2 2 3 3 2 2 2
5 6 6 6 7 6 1 3 1 4 5 2 2 2 2 3 4 1 1 2 2 2 1 0 0 0 0 0 0 1 1 1 1 1 1 1 2 2 2 3 3 2 2 2
7 6 8 9 8 5 1 2 4 6 1 2 1 2 3 4 3 3 2 2 2 1 1 0 1 0 1 1 1 1 1 1 1 1 1 1 1 2 2 2 2 2 2 2
6 6 7 7 8 5 4 4 4 2 3 0 1 2 2 3 2 2 1 1 1 1 1 1 1 1 1 1 2 2 1 1 1 1 1 1 1 1 1 2 2 2 2 3
6 4 3 5 3 3 2 3 1 2 2 1 2 2 2 3 3 2 2 2 1 1 1 1 1 1 1 2 2 2 1 1 1 1 1 2 2 1 1 2 2 2 2 2
4 3 5 6 5 3 3 3 2 2 2 2 2 2 2 3 3 3 3 2 1 1 1 2 2 2 2 2 3 2 1 1 2 2 2 2 2 2 2 1 2 2 2 3
4 4 6 8 6 4 4 3 2 1 2 2 2 2 3 3 3 3 3 2 2 1 1 2 2 2 2 2 2 2 2 1 2 3 2 2 2 2 2 2 2 2 2 2
5 6 7 6 4 5 4 2 2 2 2 2 2 2 2 2 2 3 3 2 2 2 1 2 2 2 2 2 2 2 2 2 3 3 3 2 2 2 2 2 2 1 2 1
Wind_Direction
182 216 215 211 225 269 247 244 254 352 108 224 218 240 241 166 169 192 188 180 176 165 149 135 141 155 180 178 187 181 190 177 175 181 181 180 167 152 136 128 132 163 179 165
197 207 202 176 178 204 220 236 238 152 135 243 220 261 256 195 198 211 215 204 200 182 161 148 152 150 162 175 177 183 193 179 180 186 190 193 167 151 132 139 136 150 170 165
220 105 164 200 203 222 234 247 259 251 189 211 243 231 199 183 178 186 218 227 224 211 202 170 162 157 161 168 180 189 188 177 179 183 181 175 161 169 163 162 156 152 159 167
216 194 197 213 222 240 239 243 254 243 243 236 248 267 192 186 188 198 210 213 222 213 200 184 172 163 174 181 187 204 190 174 168 181 192 198 194 186 170 156 154 164 169 175
191 190 210 225 232 239 264 184 235 244 256 259 234 259 204 181 213 207 203 202 202 196 189 186 180 180 182 164 175 204 183 167 163 179 173 198 195 186 157 154 169 185 175 182
206 192 240 249 220 205 165 179 187 218 242 251 242 249 239 189 228 227 190 193 190 179 172 175 168 156 141 123 145 176 181 171 171 176 182 191 194 191 179 177 184 198 181 184
203 187 180 203 195 173 210 231 228 217 217 231 127 247 257 70 14 291 265 195 183 175 170 165 159 148 141 140 153 167 181 192 189 188 185 196 202 206 202 195 200 205 194 193
228 196 174 200 230 221 221 248 268 276 267 221 192 239 103 72 1 283 232 183 166 166 167 169 168 165 166 164 160 169 191 207 199 199 193 200 196 216 219 214 212 215 216 206
245 201 139 174 231 239 219 231 278 283 277 267 219 190 186 156 191 183 168 163 165 170 176 179 176 175 175 175 177 186 194 207 208 215 209 205 206 213 221 226 224 223 226 224
266 246 172 164 185 155 272 227 224 242 262 255 228 227 227 168 186 161 169 171 173 176 187 185 180 179 180 180 187 187 194 198 205 217 221 213 222 221 227 232 227 227 226 227
247 242 191 187 211 209 185 201 229 241 269 281 273 109 47 359 52 134 166 175 177 182 185 183 182 184 180 168 179 182 189 193 209 219 231 233 220 224 227 235 242 244 237 230
226 253 230 202 155 283 235 231 236 248 235 252 277 15 79 27 63 91 123 145 170 183 183 179 174 173 178 183 196 199 201 211 219 230 248 257 238 217 225 233 241 248 245 233
198 236 230 194 183 185 212 224 235 249 256 247 252 201 112 111 91 79 94 127 148 160 171 175 171 178 193 200 206 209 213 225 229 225 240 257 257 246 242 243 237 233 233 231
238 240 253 261 286 214 218 217 223 234 244 249 248 260 235 256 294 330 2 166 167 168 177 179 185 191 202 213 213 214 218 224 231 232 239 249 267 272 265 253 234 224 225 225
238 245 247 265 272 254 250 239 224 231 247 261 265 267 278 286 293 298 297 229 190 195 212 213 211 211 214 221 225 223 224 226 228 234 241 250 265 272 265 255 238 214 212 226
243 245 241 239 233 244 251 245 234 236 243 249 259 262 284 298 291 291 294 292 256 247 238 230 219 218 221 224 229 232 232 233 237 241 244 247 248 253 259 251 243 224 202 212
219 236 244 246 232 248 248 236 231 231 236 246 253 262 267 264 273 283 290 288 276 274 265 249 243 241 234 235 233 235 236 236 241 249 257 255 242 227 237 239 232 223 215 213
233 234 245 258 240 242 194 103 233 241 248 251 259 261 252 278 282 277 288 308 316 314 293 284 279 280 304 302 261 237 219 226 233 249 266 269 254 239 235 229 230 232 234 224
236 232 236 245 251 260 226 195 212 237 253 251 236 233 247 260 251 236 56 356 326 321 301 288 312 312 291 313 305 203 182 195 231 264 267 259 243 232 228 224 227 235 237 239
201 228 234 233 248 252 185 127 193 242 239 170 215 240 255 254 255 272 3 317 309 313 319 338 296 343 289 300 291 222 201 218 262 270 267 260 244 229 225 226 227 231 230 238
187 201 222 234 245 258 91 135 199 233 348 101 224 251 243 253 300 332 305 294 295 292 282 215 215 262 297 277 258 251 265 274 286 281 280 271 245 235 231 230 222 215 216 224
220 213 218 226 236 238 129 167 219 323 34 43 287 280 264 274 305 304 273 272 273 251 222 220 236 271 296 273 246 246 276 306 318 294 286 280 274 261 228 217 221 218 213 225
233 244 246 237 258 16 170 213 319 352 315 315 303 295 275 261 265 270 263 266 261 246 231 237 243 262 280 282 265 261 280 302 297 283 264 270 268 264 251 232 223 220 218 229
216 242 242 250 252 253 250 251 262 273 295 309 306 290 266 262 270 273 269 259 253 255 247 244 243 249 265 284 286 284 287 283 279 282 273 266 267 268 250 232 230 229 227 230
251 225 244 253 258 257 246 242 248 265 289 303 309 283 267 264 267 267 261 253 251 248 255 257 257 272 291 296 296 300 289 268 267 269 275 265 265 257 246 234 237 241 243 256
228 234 244 257 265 269 276 290 271 254 264 279 281 278 269 263 262 258 257 254 253 253 256 273 288 300 303 299 297 299 283 267 265 267 270 270 255 247 242 237 232 201 231 216